Regional Weather Roundup
Issued by NWS Cleveland, OH

Home | Current Version | Previous Version | Text Only | Print | Product List | Glossary Off
Versions: 1 2 3 4 5 6 7 8 9 10 11 12 13 14 15 16 17 18 19 20 21 22 23 24 25 26 27 28 29 30 31 32 33 34 35 36 37 38 39 40 41 42 43 44 45 46 47 48 49 50

000
ASUS41 KCLE 041502
RWRCLE
OHIO REGIONAL WEATHER ROUNDUP
NATIONAL WEATHER SERVICE CLEVELAND, OH
1100 AM EDT WED MAY 04 2016

NOTE: "FAIR" INDICATES FEW OR NO CLOUDS BELOW 12,000 FEET WITH NO
SIGNIFICANT WEATHER AND/OR OBSTRUCTIONS TO VISIBILITY.

OHZ001>008-015>018-024>027-034-035-043-044-041600-
   NORTHWEST OHIO

CITY           SKY/WX    TMP DP  RH WIND       PRES   REMARKS
DEFIANCE       LGT RAIN  55  46  71 SW12      29.58F
FINDLAY        CLOUDY    58  43  57 SW13      29.61F
TOLEDO EXPRESS PTSUNNY   57  45  64 SW9       29.59F
TOLEDO EXEC    CLOUDY    56  48  74 S12       29.61F
LIMA           PTSUNNY   56  45  66 SW18      29.61F
$$

OHZ009>014-019>023-028>033-038-089-041600-
   NORTHEAST OHIO

CITY           SKY/WX    TMP DP  RH WIND       PRES   REMARKS
CLE-HOPKINS    PTSUNNY   61  42  49 S12       29.67F
CLE-LAKEFRONT  CLOUDY    60  42  51 SW13      29.65F
CUY CO. ARPT   PTSUNNY   61  45  55 S12       29.66F
LORAIN-ELYRIA  CLOUDY    60  43  53 S12       29.64F
ASHTABULA      SUNNY     59  40  49 VRB6      29.68F
AKRON-CANTON   PTSUNNY   58  42  55 SW10      29.67F
WOOSTER        MOSUNNY   58  44  60 S9        29.67F
MANSFIELD      CLOUDY    57  45  64 S12       29.65F
YOUNGSTOWN     PTSUNNY   58  40  51 S5        29.68F
$$

OHZ042-051>053-060>062-070>072-077>081-041600-
  SOUTHWEST OHIO

CITY           SKY/WX    TMP DP  RH WIND       PRES   REMARKS
CINC-COVINGTON LGT RAIN  53  44  71 W8G21     29.71S
CINC-LUNKEN    CLOUDY    56  45  66 SW12G20   29.71R
HAMILTON       CLOUDY    55  46  71 SW9G17    29.70S
DAYTON         CLOUDY    54  44  69 SW17      29.66F
WRIGHT-PAT AFB CLOUDY    57  46  66 SW15      29.66S
DAYTON GENERAL CLOUDY    56  43  61 SW13G22   29.67S
WILMINGTON     SUNNY     60  44  55 SW20      29.67F
$$

OHZ036-037-039>041-045>050-054>059-063>069-073>076-082>088-041600-
  CENTRAL AND SOUTHEAST OHIO

CITY           SKY/WX    TMP DP  RH WIND       PRES   REMARKS
COLUMBUS       PTSUNNY   58  48  69 S6        29.66F
OSU AIRPORT    MOSUNNY   61  47  59 S12G18    29.65F
BOLTON FIELD   PTSUNNY   59  48  67 S9        29.67F
RICKENBACK AFB NOT AVBL
NEWARK         SUNNY     63  47  55 SW9       29.67F
MARION         CLOUDY    58  48  69 S16       29.64F
LANCASTER      SUNNY     61  48  62 SW12      29.68F
ZANESVILLE     SUNNY     62  45  53 VRB3      29.68F
NEW PHILLY     CLOUDY    59  44  57 SW8       29.69F
$$



USA.gov is the U.S. government's official web portal to all federal, state and local government web resources and services.